Torna al catalogo

COSMOS 970 DEB

AttivoLEO
NORAD 15559·DEBRIS·🇷🇺 Russia

Lanciato Dec 21, 1977 da Baikonur Cosmodrome

Loading…

Prossimi Passaggi (prossime 24 ore)

TLE

AggiornatoSource: Space-Track

Epoca: Sep 14, 2026, 14:03 UTC

1 15559U 77121BM  26257.58607887  .00000023  00000-0  12083-3 0  9996
2 15559  65.5818   3.1937 0126070 343.6029  27.5653 13.65345999 72704

Traccia COSMOS 970 DEB in tempo reale con AllMySat

Download on the App Store